This is the latest recevied weather packets stored in our database for station/object LU5DTF-1. If no packets are shown the sender has not sent any weather packets the latest 10 day(s).
| Time | Temp. | Humidity | Pressure | Rain* | Wind** | Luminosity | Snow |
|---|---|---|---|---|---|---|---|
| 1777905004 | 15° C | 63% | 1008.8 hPa | 0 mm | - | - | - |
| 1777904404 | 15° C | 63% | 1008.8 hPa | 0 mm | - | - | - |
| 1777904104 | 14.44° C | 63% | 1008.8 hPa | 0 mm | - | - | - |
| 1777903804 | 14.44° C | 63% | 1008.8 hPa | 0 mm | - | - | - |
| 1777903205 | 14.44° C | 62% | 1008.8 hPa | 0 mm | - | - | - |
| 1777901703 | 14.44° C | 62% | 1008.5 hPa | 0 mm | - | - | - |
| 1777901103 | 13.89° C | 63% | 1008.6 hPa | 0 mm | - | - | - |
| 1777900803 | 13.89° C | 63% | 1008.6 hPa | 0 mm | - | - | - |
| 1777900504 | 13.33° C | 63% | 1008.7 hPa | 0 mm | - | - | - |
| 1777899904 | 13.33° C | 64% | 1008.7 hPa | 0 mm | - | - | - |
| 1777898704 | 12.22° C | 65% | 1008.5 hPa | 0 mm | - | - | - |
| 1777898103 | 12.22° C | 66% | 1008.6 hPa | 0 mm | - | - | - |
| 1777897804 | 12.22° C | 66% | 1008.6 hPa | 0 mm | - | - | - |
| 1777897503 | 12.22° C | 65% | 1008.7 hPa | 0 mm | - | - | - |
| 1777897203 | 11.67° C | 66% | 1008.7 hPa | 0 mm | - | - | - |
| 1777896903 | 11.67° C | 66% | 1008.7 hPa | 0 mm | - | - | - |
| 1777896603 | 11.67° C | 66% | 1008.7 hPa | 0 mm | - | - | - |
| 1777895703 | 11.11° C | 67% | 1008.6 hPa | 0 mm | - | - | - |
| 1777895104 | 11.11° C | 67% | 1008.6 hPa | 0 mm | - | - | - |
| 1777894203 | 11.67° C | 66% | 1008.5 hPa | 0 mm | - | - | - |
| 1777893903 | 11.67° C | 66% | 1008.7 hPa | 0 mm | - | - | - |
| 1777893603 | 11.67° C | 65% | 1008.6 hPa | 0 mm | - | - | - |
| 1777893304 | 11.67° C | 66% | 1008.6 hPa | 0 mm | - | - | - |
| 1777893003 | 11.11° C | 66% | 1008.6 hPa | 0 mm | - | - | - |
| 1777892703 | 11.11° C | 66% | 1008.6 hPa | 0 mm | - | - | - |
* Rain latest hour (hover to see other rain measurements)
** Current wind speed in m/s (hover to see current wind gust speed)